Time,TemperatureF,DewpointF,PressureIn,WindDirection,WindDirectionDegrees,WindSpeedMPH,WindSpeedGustMPH,Humidity,HourlyPrecipIn,Conditions,Clouds,dailyrainin,SoftwareType,DateUTC
2013-02-08 00:00:00,24.3,19.4,29.54,East,90,1.8,3.4,81,0.00,,,0.00,WUHU216HW,2013-02-08 06:00:00,
2013-02-08 00:05:00,24.1,19.2,29.54,NNE,23,1.6,3.8,81,0.00,,,0.00,WUHU216HW,2013-02-08 06:05:00,
2013-02-08 00:10:00,24.1,19.2,29.54,East,90,1.8,3.8,81,0.00,,,0.00,WUHU216HW,2013-02-08 06:10:00,
2013-02-08 00:15:00,24.1,19.2,29.54,East,90,1.3,4.3,81,0.00,,,0.00,WUHU216HW,2013-02-08 06:15:00,
2013-02-08 00:20:00,24.1,19.2,29.54,NNE,23,1.6,4.9,81,0.00,,,0.00,WUHU216HW,2013-02-08 06:20:00,
2013-02-08 00:25:00,24.1,19.2,29.54,NNE,23,2.5,4.9,81,0.00,,,0.00,WUHU216HW,2013-02-08 06:25:00,
2013-02-08 00:30:00,24.1,19.2,29.55,NNE,23,0.9,2.5,81,0.00,,,0.00,WUHU216HW,2013-02-08 06:30:00,
2013-02-08 00:35:00,24.1,19.2,29.56,North,0,2.5,2.5,81,0.00,,,0.00,WUHU216HW,2013-02-08 06:35:00,
2013-02-08 00:40:00,24.1,19.2,29.56,NNE,23,1.1,2.5,81,0.00,,,0.00,WUHU216HW,2013-02-08 06:40:00,
2013-02-08 00:45:00,24.1,18.9,29.57,North,0,1.1,2.0,80,0.00,,,0.00,WUHU216HW,2013-02-08 06:45:00,
2013-02-08 00:50:00,24.3,19.1,29.57,NNE,23,1.8,1.8,80,0.00,,,0.00,WUHU216HW,2013-02-08 06:50:00,
2013-02-08 00:55:00,24.1,18.9,29.57,North,0,0.4,2.7,80,0.00,,,0.00,WUHU216HW,2013-02-08 06:55:00,
2013-02-08 01:00:00,24.1,18.9,29.57,ENE,68,1.6,2.7,80,0.00,,,0.00,WUHU216HW,2013-02-08 07:00:00,
2013-02-08 01:05:00,24.1,18.9,29.57,North,0,2.5,2.5,80,0.00,,,0.00,WUHU216HW,2013-02-08 07:05:00,
2013-02-08 01:10:00,24.1,19.2,29.57,North,0,1.1,2.9,81,0.00,,,0.00,WUHU216HW,2013-02-08 07:10:00,
2013-02-08 01:15:00,24.1,19.2,29.57,North,0,0.7,2.9,81,0.00,,,0.00,WUHU216HW,2013-02-08 07:15:00,
2013-02-08 01:20:00,24.1,18.9,29.57,NE,45,2.5,2.5,80,0.00,,,0.00,WUHU216HW,2013-02-08 07:20:00,
2013-02-08 01:25:00,24.1,18.9,29.57,North,0,1.1,2.5,80,0.00,,,0.00,WUHU216HW,2013-02-08 07:25:00,
2013-02-08 01:30:00,24.1,18.9,29.57,SSW,203,0.0,2.9,80,0.00,,,0.00,WUHU216HW,2013-02-08 07:30:00,
2013-02-08 01:35:00,24.1,18.9,29.57,ENE,68,2.5,2.9,80,0.00,,,0.00,WUHU216HW,2013-02-08 07:35:00,
2013-02-08 01:40:00,24.1,18.9,29.56,NNE,23,2.7,2.9,80,0.00,,,0.00,WUHU216HW,2013-02-08 07:40:00,
2013-02-08 01:45:00,23.9,18.7,29.56,NNE,23,0.9,3.8,80,0.00,,,0.00,WUHU216HW,2013-02-08 07:45:00,
2013-02-08 01:50:00,23.9,18.7,29.57,NNE,23,1.1,3.8,80,0.00,,,0.00,WUHU216HW,2013-02-08 07:50:00,
2013-02-08 01:55:00,23.8,18.5,29.57,ENE,68,1.3,3.4,80,0.00,,,0.00,WUHU216HW,2013-02-08 07:55:00,
2013-02-08 02:00:00,23.8,18.5,29.57,North,0,0.7,3.4,80,0.00,,,0.00,WUHU216HW,2013-02-08 08:00:00,
2013-02-08 02:05:00,23.8,18.5,29.57,NE,45,2.0,2.5,80,0.00,,,0.00,WUHU216HW,2013-02-08 08:05:00,
2013-02-08 02:10:00,23.6,18.4,29.57,NNE,23,2.0,2.5,80,0.00,,,0.00,WUHU216HW,2013-02-08 08:10:00,
2013-02-08 02:15:00,23.6,18.4,29.57,North,0,1.6,2.0,80,0.00,,,0.00,WUHU216HW,2013-02-08 08:15:00,
2013-02-08 02:20:00,23.6,18.4,29.57,NNE,23,0.9,1.8,80,0.00,,,0.00,WUHU216HW,2013-02-08 08:20:00,
2013-02-08 02:25:00,23.4,18.2,29.58,NE,45,1.6,1.8,80,0.00,,,0.00,WUHU216HW,2013-02-08 08:25:00,
2013-02-08 02:30:00,23.4,18.2,29.58,North,0,1.1,1.8,80,0.00,,,0.00,WUHU216HW,2013-02-08 08:30:00,
2013-02-08 02:35:00,23.4,18.5,29.57,NNE,23,0.9,1.8,81,0.00,,,0.00,WUHU216HW,2013-02-08 08:35:00,
2013-02-08 02:40:00,23.2,18.3,29.57,North,0,0.4,1.8,81,0.00,,,0.00,WUHU216HW,2013-02-08 08:40:00,
2013-02-08 02:45:00,23.2,18.3,29.58,NE,45,1.1,1.6,81,0.00,,,0.00,WUHU216HW,2013-02-08 08:45:00,
2013-02-08 02:50:00,23.0,18.1,29.58,NE,45,0.4,1.1,81,0.00,,,0.00,WUHU216HW,2013-02-08 08:50:00,
2013-02-08 02:55:00,23.0,18.1,29.58,NE,45,1.1,2.9,81,0.00,,,0.00,WUHU216HW,2013-02-08 08:55:00,
2013-02-08 03:00:00,22.9,17.9,29.57,NE,45,1.1,2.9,81,0.00,,,0.00,WUHU216HW,2013-02-08 09:00:00,
2013-02-08 03:05:00,22.9,17.9,29.57,NE,45,0.7,1.1,81,0.00,,,0.00,WUHU216HW,2013-02-08 09:05:00,
2013-02-08 03:10:00,22.7,17.7,29.57,NE,45,2.2,2.2,81,0.00,,,0.00,WUHU216HW,2013-02-08 09:10:00,
2013-02-08 03:15:00,22.5,17.8,29.56,North,0,1.1,2.2,82,0.00,,,0.00,WUHU216HW,2013-02-08 09:15:00,
2013-02-08 03:20:00,22.1,17.5,29.57,NNE,23,0.4,2.0,82,0.00,,,0.00,WUHU216HW,2013-02-08 09:20:00,
2013-02-08 03:25:00,22.0,17.3,29.57,NE,45,1.6,2.5,82,0.00,,,0.00,WUHU216HW,2013-02-08 09:25:00,
2013-02-08 03:30:00,21.6,16.9,29.57,ENE,68,1.8,2.5,82,0.00,,,0.00,WUHU216HW,2013-02-08 09:30:00,
2013-02-08 03:35:00,21.2,16.6,29.57,NNE,23,1.3,2.5,82,0.00,,,0.00,WUHU216HW,2013-02-08 09:35:00,
2013-02-08 03:40:00,21.1,16.4,29.58,North,0,0.0,1.3,82,0.00,,,0.00,WUHU216HW,2013-02-08 09:40:00,
2013-02-08 03:45:00,20.9,16.2,29.58,NNE,23,0.0,0.4,82,0.00,,,0.00,WUHU216HW,2013-02-08 09:45:00,
2013-02-08 03:50:00,20.9,16.2,29.58,NNE,23,0.0,0.2,82,0.00,,,0.00,WUHU216HW,2013-02-08 09:50:00,
2013-02-08 03:55:00,20.9,16.2,29.58,NNE,23,0.0,0.0,82,0.00,,,0.00,WUHU216HW,2013-02-08 09:55:00,
2013-02-08 04:00:00,21.1,16.7,29.58,NNE,23,0.0,0.0,83,0.00,,,0.00,WUHU216HW,2013-02-08 10:00:00,
2013-02-08 04:05:00,21.2,16.8,29.58,NNW,338,0.0,0.0,83,0.00,,,0.00,WUHU216HW,2013-02-08 10:05:00,
2013-02-08 04:10:00,21.1,16.4,29.58,ENE,68,0.0,0.2,82,0.00,,,0.00,WUHU216HW,2013-02-08 10:10:00,
2013-02-08 04:15:00,20.7,16.0,29.58,East,90,0.0,0.2,82,0.00,,,0.00,WUHU216HW,2013-02-08 10:15:00,
2013-02-08 04:20:00,20.3,15.7,29.59,NE,45,0.0,0.0,82,0.00,,,0.00,WUHU216HW,2013-02-08 10:20:00,
2013-02-08 04:25:00,20.0,15.6,29.58,ESE,113,0.0,0.2,83,0.00,,,0.00,WUHU216HW,2013-02-08 10:25:00,
2013-02-08 04:30:00,19.6,15.2,29.58,ENE,68,0.0,0.2,83,0.00,,,0.00,WUHU216HW,2013-02-08 10:30:00,
2013-02-08 04:35:00,19.3,14.6,29.59,SSE,158,0.0,0.2,82,0.00,,,0.00,WUHU216HW,2013-02-08 10:35:00,
2013-02-08 04:40:00,19.1,14.7,29.59,NNE,23,0.0,0.2,83,0.00,,,0.00,WUHU216HW,2013-02-08 10:40:00,
2013-02-08 04:45:00,18.9,14.5,29.59,ENE,68,0.0,0.2,83,0.00,,,0.00,WUHU216HW,2013-02-08 10:45:00,
2013-02-08 04:50:00,18.5,14.1,29.59,SSW,203,0.0,0.2,83,0.00,,,0.00,WUHU216HW,2013-02-08 10:50:00,
2013-02-08 04:55:00,18.5,14.4,29.59,WSW,248,0.0,0.0,84,0.00,,,0.00,WUHU216HW,2013-02-08 10:55:00,
2013-02-08 05:00:00,18.4,14.2,29.59,WSW,248,0.0,0.0,84,0.00,,,0.00,WUHU216HW,2013-02-08 11:00:00,
2013-02-08 05:05:00,18.4,14.2,29.59,WSW,248,0.0,0.0,84,0.00,,,0.00,WUHU216HW,2013-02-08 11:05:00,
2013-02-08 05:10:00,18.4,14.2,29.59,SW,225,0.0,0.0,84,0.00,,,0.00,WUHU216HW,2013-02-08 11:10:00,
2013-02-08 05:15:00,18.2,14.0,29.60,SSE,158,0.0,0.0,84,0.00,,,0.00,WUHU216HW,2013-02-08 11:15:00,
2013-02-08 05:20:00,17.8,13.7,29.60,SSE,158,0.0,0.0,84,0.00,,,0.00,WUHU216HW,2013-02-08 11:20:00,
2013-02-08 05:25:00,17.8,13.7,29.61,SSE,158,0.0,0.0,84,0.00,,,0.00,WUHU216HW,2013-02-08 11:25:00,
2013-02-08 05:30:00,17.6,13.5,29.61,SSE,158,0.0,0.0,84,0.00,,,0.00,WUHU216HW,2013-02-08 11:30:00,
2013-02-08 05:35:00,17.6,13.5,29.61,SSE,158,0.0,0.0,84,0.00,,,0.00,WUHU216HW,2013-02-08 11:35:00,
2013-02-08 05:40:00,17.3,13.1,29.61,SSE,158,0.0,0.0,84,0.00,,,0.00,WUHU216HW,2013-02-08 11:40:00,
2013-02-08 05:45:00,17.1,13.0,29.61,SSE,158,0.0,0.0,84,0.00,,,0.00,WUHU216HW,2013-02-08 11:45:00,
2013-02-08 05:50:00,16.9,12.8,29.61,SSE,158,0.0,0.0,84,0.00,,,0.00,WUHU216HW,2013-02-08 11:50:00,
2013-02-08 05:55:00,16.4,12.3,29.61,ESE,113,0.0,0.0,84,0.00,,,0.00,WUHU216HW,2013-02-08 11:55:00,
2013-02-08 06:00:00,16.2,12.2,29.61,South,180,0.0,0.0,84,0.00,,,0.00,WUHU216HW,2013-02-08 12:00:00,
2013-02-08 06:05:00,15.8,11.8,29.61,South,180,0.0,0.0,84,0.00,,,0.00,WUHU216HW,2013-02-08 12:05:00,
2013-02-08 06:10:00,15.8,11.8,29.61,South,180,0.0,0.0,84,0.00,,,0.00,WUHU216HW,2013-02-08 12:10:00,
2013-02-08 06:15:00,15.8,12.1,29.62,NW,315,0.0,0.0,85,0.00,,,0.00,WUHU216HW,2013-02-08 12:15:00,
2013-02-08 06:20:00,15.7,11.6,29.62,NNW,338,0.0,0.4,84,0.00,,,0.00,WUHU216HW,2013-02-08 12:20:00,
2013-02-08 06:25:00,15.7,11.6,29.62,NW,315,0.0,0.4,84,0.00,,,0.00,WUHU216HW,2013-02-08 12:25:00,
2013-02-08 06:30:00,15.5,11.4,29.61,SSE,158,0.4,0.4,84,0.00,,,0.00,WUHU216HW,2013-02-08 12:30:00,
2013-02-08 06:35:00,15.5,11.4,29.62,SSE,158,0.0,0.4,84,0.00,,,0.00,WUHU216HW,2013-02-08 12:35:00,
2013-02-08 06:40:00,15.3,11.3,29.62,SSE,158,0.0,0.2,84,0.00,,,0.00,WUHU216HW,2013-02-08 12:40:00,
2013-02-08 06:45:00,15.1,11.2,29.62,SSE,158,0.0,0.0,84,0.00,,,0.00,WUHU216HW,2013-02-08 12:45:00,
2013-02-08 06:50:00,14.8,10.8,29.62,SSE,158,0.0,0.0,84,0.00,,,0.00,WUHU216HW,2013-02-08 12:50:00,
2013-02-08 06:55:00,14.4,10.7,29.62,SSE,158,0.2,0.2,85,0.00,,,0.00,WUHU216HW,2013-02-08 12:55:00,
2013-02-08 07:00:00,13.9,9.9,29.62,SSE,158,0.0,0.2,84,0.00,,,0.00,WUHU216HW,2013-02-08 13:00:00,
2013-02-08 07:05:00,13.3,9.4,29.62,SSE,158,0.0,0.2,84,0.00,,,0.00,WUHU216HW,2013-02-08 13:05:00,
2013-02-08 07:10:00,13.1,8.9,29.62,ESE,113,0.0,0.2,83,0.00,,,0.00,WUHU216HW,2013-02-08 13:10:00,
2013-02-08 07:15:00,12.6,8.4,29.62,ESE,113,0.2,0.4,83,0.00,,,0.00,WUHU216HW,2013-02-08 13:15:00,
2013-02-08 07:20:00,11.9,7.7,29.62,East,90,0.0,0.4,83,0.00,,,0.00,WUHU216HW,2013-02-08 13:20:00,
2013-02-08 07:25:00,11.5,7.3,29.62,East,90,0.0,0.2,83,0.00,,,0.00,WUHU216HW,2013-02-08 13:25:00,
2013-02-08 07:30:00,11.2,6.9,29.62,East,90,0.0,0.2,83,0.00,,,0.00,WUHU216HW,2013-02-08 13:30:00,
2013-02-08 07:35:00,11.0,6.8,29.62,ESE,113,0.0,0.2,83,0.00,,,0.00,WUHU216HW,2013-02-08 13:35:00,
2013-02-08 07:40:00,11.0,6.8,29.63,East,90,0.0,0.2,83,0.00,,,0.00,WUHU216HW,2013-02-08 13:40:00,
2013-02-08 07:45:00,11.0,6.8,29.63,East,90,0.0,0.0,83,0.00,,,0.00,WUHU216HW,2013-02-08 13:45:00,
2013-02-08 07:50:00,11.0,6.8,29.63,East,90,0.0,0.0,83,0.00,,,0.00,WUHU216HW,2013-02-08 13:50:00,
2013-02-08 07:55:00,11.0,6.8,29.63,East,90,0.0,0.2,83,0.00,,,0.00,WUHU216HW,2013-02-08 13:55:00,
2013-02-08 08:00:00,11.2,6.9,29.63,ESE,113,0.2,0.4,83,0.00,,,0.00,WUHU216HW,2013-02-08 14:00:00,
2013-02-08 08:05:00,11.3,7.4,29.63,ESE,113,0.0,0.4,84,0.00,,,0.00,WUHU216HW,2013-02-08 14:05:00,
2013-02-08 08:10:00,11.9,7.9,29.63,ESE,113,0.4,0.4,84,0.00,,,0.00,WUHU216HW,2013-02-08 14:10:00,
2013-02-08 08:15:00,12.6,8.6,29.63,ESE,113,0.0,0.4,84,0.00,,,0.00,WUHU216HW,2013-02-08 14:15:00,
2013-02-08 08:20:00,13.0,9.0,29.63,East,90,0.4,0.4,84,0.00,,,0.00,WUHU216HW,2013-02-08 14:20:00,
2013-02-08 08:25:00,13.5,9.8,29.63,ESE,113,1.1,1.3,85,0.00,,,0.00,WUHU216HW,2013-02-08 14:25:00,
2013-02-08 08:30:00,13.9,10.4,29.62,East,90,1.1,2.7,86,0.00,,,0.00,WUHU216HW,2013-02-08 14:30:00,
2013-02-08 08:35:00,14.0,10.6,29.63,East,90,2.7,2.7,86,0.00,,,0.00,WUHU216HW,2013-02-08 14:35:00,
2013-02-08 08:41:00,14.8,11.4,29.63,East,90,2.2,2.9,86,0.00,,,0.00,WUHU216HW,2013-02-08 14:41:00,
2013-02-08 08:46:00,15.5,12.0,29.63,SE,135,1.1,2.9,86,0.00,,,0.00,WUHU216HW,2013-02-08 14:46:00,
2013-02-08 08:50:00,16.2,12.7,29.64,ESE,113,3.4,3.4,86,0.00,,,0.00,WUHU216HW,2013-02-08 14:50:00,
2013-02-08 08:55:00,16.7,13.1,29.64,ESE,113,3.4,4.0,86,0.00,,,0.00,WUHU216HW,2013-02-08 14:55:00,
2013-02-08 09:00:00,17.3,13.4,29.64,East,90,2.2,4.0,85,0.00,,,0.00,WUHU216HW,2013-02-08 15:00:00,
2013-02-08 09:05:00,17.6,13.5,29.64,ESE,113,2.7,4.0,84,0.00,,,0.00,WUHU216HW,2013-02-08 15:05:00,
2013-02-08 09:10:00,18.0,13.9,29.64,ESE,113,2.0,3.8,84,0.00,,,0.00,WUHU216HW,2013-02-08 15:10:00,
2013-02-08 09:16:00,18.4,14.0,29.65,East,90,1.1,3.1,83,0.00,,,0.00,WUHU216HW,2013-02-08 15:16:00,
2013-02-08 09:20:00,19.1,14.7,29.65,ESE,113,2.5,2.5,83,0.00,,,0.00,WUHU216HW,2013-02-08 15:20:00,
2013-02-08 09:25:00,19.4,14.8,29.65,ESE,113,3.1,4.3,82,0.00,,,0.00,WUHU216HW,2013-02-08 15:25:00,
2013-02-08 09:31:00,19.8,15.1,29.65,ESE,113,2.0,4.3,82,0.00,,,0.00,WUHU216HW,2013-02-08 15:31:00,
2013-02-08 09:35:00,19.8,14.9,29.65,East,90,3.1,3.1,81,0.00,,,0.00,WUHU216HW,2013-02-08 15:35:00,
2013-02-08 09:41:00,20.2,14.9,29.64,ESE,113,3.6,4.7,80,0.00,,,0.00,WUHU216HW,2013-02-08 15:41:00,
2013-02-08 09:46:00,20.5,15.0,29.64,ESE,113,3.6,5.8,79,0.00,,,0.00,WUHU216HW,2013-02-08 15:46:00,
2013-02-08 09:50:00,20.7,14.9,29.64,ESE,113,3.1,5.8,78,0.00,,,0.00,WUHU216HW,2013-02-08 15:50:00,
2013-02-08 09:55:00,21.2,15.1,29.64,SE,135,2.2,7.2,77,0.00,,,0.00,WUHU216HW,2013-02-08 15:55:00,
2013-02-08 10:00:00,21.6,15.5,29.64,SE,135,5.1,7.2,77,0.00,,,0.00,WUHU216HW,2013-02-08 16:00:00,
2013-02-08 10:05:00,21.8,15.3,29.64,SE,135,6.3,7.6,76,0.00,,,0.00,WUHU216HW,2013-02-08 16:05:00,
2013-02-08 10:10:00,22.1,15.4,29.64,ESE,113,7.6,7.6,75,0.00,,,0.00,WUHU216HW,2013-02-08 16:10:00,
2013-02-08 10:15:00,22.5,15.5,29.64,ESE,113,6.9,7.6,74,0.00,,,0.00,WUHU216HW,2013-02-08 16:15:00,
2013-02-08 10:21:00,22.9,15.5,29.65,ESE,113,6.3,7.4,73,0.00,,,0.00,WUHU216HW,2013-02-08 16:21:00,
2013-02-08 10:26:00,23.0,15.0,29.64,ESE,113,5.8,6.7,71,0.00,,,0.00,WUHU216HW,2013-02-08 16:26:00,
2013-02-08 10:31:00,23.0,14.8,29.64,East,90,6.9,7.6,70,0.00,,,0.00,WUHU216HW,2013-02-08 16:31:00,
2013-02-08 10:36:00,23.4,15.1,29.65,ESE,113,4.5,7.6,70,0.00,,,0.00,WUHU216HW,2013-02-08 16:36:00,
2013-02-08 10:41:00,23.8,15.4,29.64,SE,135,8.7,8.7,70,0.00,,,0.00,WUHU216HW,2013-02-08 16:41:00,
2013-02-08 10:46:00,24.1,15.8,29.64,ESE,113,4.7,8.7,70,0.00,,,0.00,WUHU216HW,2013-02-08 16:46:00,
2013-02-08 10:51:00,24.3,15.2,29.64,ESE,113,4.5,8.9,68,0.00,,,0.00,WUHU216HW,2013-02-08 16:51:00,
2013-02-08 10:56:00,24.3,15.6,29.65,SSE,158,3.4,10.1,69,0.00,,,0.00,WUHU216HW,2013-02-08 16:56:00,
2013-02-08 11:01:00,24.8,15.7,29.65,SSE,158,7.6,10.1,68,0.00,,,0.00,WUHU216HW,2013-02-08 17:01:00,
2013-02-08 11:06:00,24.7,15.6,29.65,ESE,113,4.0,9.6,68,0.00,,,0.00,WUHU216HW,2013-02-08 17:06:00,
2013-02-08 11:11:00,24.8,16.0,29.65,ESE,113,8.5,8.5,69,0.00,,,0.00,WUHU216HW,2013-02-08 17:11:00,
2013-02-08 11:16:00,25.2,16.7,29.64,ESE,113,5.1,8.5,70,0.00,,,0.00,WUHU216HW,2013-02-08 17:16:00,
2013-02-08 11:21:00,25.2,16.4,29.64,SE,135,4.9,11.2,69,0.00,,,0.00,WUHU216HW,2013-02-08 17:21:00,
2013-02-08 11:26:00,25.2,16.7,29.64,East,90,4.3,11.2,70,0.00,,,0.00,WUHU216HW,2013-02-08 17:26:00,
2013-02-08 11:31:00,25.4,16.2,29.64,ESE,113,3.4,8.5,68,0.00,,,0.00,WUHU216HW,2013-02-08 17:31:00,
2013-02-08 11:36:00,25.6,16.7,29.64,SSE,158,5.8,7.2,69,0.00,,,0.00,WUHU216HW,2013-02-08 17:36:00,
2013-02-08 11:41:00,25.7,16.6,29.64,SSE,158,5.4,7.4,68,0.00,,,0.00,WUHU216HW,2013-02-08 17:41:00,
2013-02-08 11:46:00,25.7,15.8,29.64,East,90,5.8,7.4,66,0.00,,,0.00,WUHU216HW,2013-02-08 17:46:00,
2013-02-08 11:51:00,25.6,15.7,29.64,SSE,158,8.3,8.3,66,0.00,,,0.00,WUHU216HW,2013-02-08 17:51:00,
2013-02-08 11:56:00,25.9,16.0,29.64,SE,135,6.3,8.3,66,0.00,,,0.00,WUHU216HW,2013-02-08 17:56:00,
2013-02-08 12:01:00,26.3,16.7,29.64,ESE,113,4.0,6.3,67,0.00,,,0.00,WUHU216HW,2013-02-08 18:01:00,
2013-02-08 12:06:00,26.6,16.7,29.64,SSE,158,6.9,9.4,66,0.00,,,0.00,WUHU216HW,2013-02-08 18:06:00,
2013-02-08 12:11:00,27.0,17.5,29.63,ESE,113,3.6,9.4,67,0.00,,,0.00,WUHU216HW,2013-02-08 18:11:00,
2013-02-08 12:16:00,27.0,16.7,29.63,SSE,158,3.6,7.6,65,0.00,,,0.00,WUHU216HW,2013-02-08 18:16:00,
2013-02-08 12:21:00,27.5,17.3,29.63,SE,135,8.7,8.7,65,0.00,,,0.00,WUHU216HW,2013-02-08 18:21:00,
2013-02-08 12:26:00,27.4,16.7,29.63,SE,135,4.9,8.7,64,0.00,,,0.00,WUHU216HW,2013-02-08 18:26:00,
2013-02-08 12:31:00,27.5,16.6,29.62,SE,135,1.6,7.6,63,0.00,,,0.00,WUHU216HW,2013-02-08 18:31:00,
2013-02-08 12:36:00,28.3,17.6,29.62,SSE,158,4.0,7.6,64,0.00,,,0.00,WUHU216HW,2013-02-08 18:36:00,
2013-02-08 12:41:00,28.4,17.5,29.62,ESE,113,4.7,8.9,63,0.00,,,0.00,WUHU216HW,2013-02-08 18:41:00,
2013-02-08 12:46:00,28.8,17.5,29.62,SE,135,1.3,8.9,62,0.00,,,0.00,WUHU216HW,2013-02-08 18:46:00,
2013-02-08 12:51:00,29.0,17.6,29.62,SE,135,1.8,7.4,62,0.00,,,0.00,WUHU216HW,2013-02-08 18:51:00,
2013-02-08 12:56:00,28.6,17.3,29.63,SE,135,1.8,7.4,62,0.00,,,0.00,WUHU216HW,2013-02-08 18:56:00,
2013-02-08 13:01:00,28.8,17.5,29.62,SSE,158,4.5,7.2,62,0.00,,,0.00,WUHU216HW,2013-02-08 19:01:00,
2013-02-08 13:06:00,29.2,17.7,29.62,ESE,113,3.4,6.0,62,0.00,,,0.00,WUHU216HW,2013-02-08 19:06:00,
2013-02-08 13:11:00,29.7,18.6,29.62,ESE,113,1.3,6.0,63,0.00,,,0.00,WUHU216HW,2013-02-08 19:11:00,
2013-02-08 13:16:00,30.1,18.5,29.62,ESE,113,3.4,6.3,62,0.00,,,0.00,WUHU216HW,2013-02-08 19:16:00,
2013-02-08 13:21:00,30.1,17.8,29.62,SSE,158,4.7,6.3,60,0.00,,,0.00,WUHU216HW,2013-02-08 19:21:00,
2013-02-08 13:26:00,29.9,17.6,29.62,SE,135,3.1,6.0,60,0.00,,,0.00,WUHU216HW,2013-02-08 19:26:00,
2013-02-08 13:31:00,30.1,18.2,29.61,SSE,158,7.6,7.6,61,0.00,,,0.00,WUHU216HW,2013-02-08 19:31:00,
2013-02-08 13:36:00,30.2,18.0,29.61,SSE,158,2.7,7.6,60,0.00,,,0.00,WUHU216HW,2013-02-08 19:36:00,
2013-02-08 13:41:00,30.2,17.6,29.61,SE,135,5.1,6.9,59,0.00,,,0.00,WUHU216HW,2013-02-08 19:41:00,
2013-02-08 13:46:00,30.6,18.4,29.60,SSE,158,7.4,7.4,60,0.00,,,0.00,WUHU216HW,2013-02-08 19:46:00,
2013-02-08 13:51:00,30.4,17.4,29.60,SE,135,3.8,7.4,58,0.00,,,0.00,WUHU216HW,2013-02-08 19:51:00,
2013-02-08 13:56:00,30.1,17.0,29.60,SSE,158,6.5,6.5,58,0.00,,,0.00,WUHU216HW,2013-02-08 19:56:00,
2013-02-08 14:01:00,29.9,17.3,29.60,SE,135,6.3,6.5,59,0.00,,,0.00,WUHU216HW,2013-02-08 20:01:00,
2013-02-08 14:06:00,30.1,17.8,29.59,South,180,4.5,6.3,60,0.00,,,0.00,WUHU216HW,2013-02-08 20:06:00,
2013-02-08 14:11:00,30.1,17.0,29.59,SSE,158,5.6,5.6,58,0.00,,,0.00,WUHU216HW,2013-02-08 20:11:00,
2013-02-08 14:16:00,29.9,17.3,29.59,SE,135,6.0,6.0,59,0.00,,,0.00,WUHU216HW,2013-02-08 20:16:00,
2013-02-08 14:21:00,29.7,17.6,29.59,SSE,158,6.0,6.5,60,0.00,,,0.00,WUHU216HW,2013-02-08 20:21:00,
2013-02-08 14:26:00,29.7,17.6,29.59,SSE,158,4.7,6.5,60,0.00,,,0.00,WUHU216HW,2013-02-08 20:26:00,
2013-02-08 14:31:00,29.7,17.6,29.58,SE,135,3.6,7.4,60,0.00,,,0.00,WUHU216HW,2013-02-08 20:31:00,
2013-02-08 14:36:00,29.7,17.6,29.58,ESE,113,6.9,7.6,60,0.00,,,0.00,WUHU216HW,2013-02-08 20:36:00,
2013-02-08 14:41:00,29.5,17.7,29.58,SE,135,4.5,7.6,61,0.00,,,0.00,WUHU216HW,2013-02-08 20:41:00,
2013-02-08 14:46:00,29.2,16.2,29.58,ESE,113,6.3,6.5,58,0.00,,,0.00,WUHU216HW,2013-02-08 20:46:00,
2013-02-08 14:51:00,29.2,16.2,29.57,ESE,113,6.3,6.5,58,0.00,,,0.00,WUHU216HW,2013-02-08 20:51:00,
2013-02-08 14:56:00,29.2,16.2,29.57,ESE,113,6.3,6.3,58,0.00,,,0.00,WUHU216HW,2013-02-08 20:56:00,
2013-02-08 15:01:00,29.2,16.2,29.57,ESE,113,6.3,6.3,58,0.00,,,0.00,WUHU216HW,2013-02-08 21:01:00,
2013-02-08 15:06:00,28.6,16.9,29.57,SE,135,4.9,6.3,61,0.00,,,0.00,WUHU216HW,2013-02-08 21:06:00,
2013-02-08 15:11:00,28.8,16.8,29.58,SSE,158,3.6,7.4,60,0.00,,,0.00,WUHU216HW,2013-02-08 21:11:00,
2013-02-08 15:16:00,29.0,17.2,29.57,SE,135,3.4,7.4,61,0.00,,,0.00,WUHU216HW,2013-02-08 21:16:00,
2013-02-08 15:21:00,29.2,17.4,29.57,SE,135,1.8,4.7,61,0.00,,,0.00,WUHU216HW,2013-02-08 21:21:00,
2013-02-08 15:26:00,29.0,17.2,29.58,NNE,23,1.1,4.5,61,0.00,,,0.00,WUHU216HW,2013-02-08 21:26:00,
2013-02-08 15:31:00,29.0,17.2,29.57,WNW,293,0.9,4.5,61,0.00,,,0.00,WUHU216HW,2013-02-08 21:31:00,
2013-02-08 15:36:00,28.8,17.1,29.58,SSE,158,4.7,6.3,61,0.00,,,0.00,WUHU216HW,2013-02-08 21:36:00,
2013-02-08 15:41:00,28.8,17.5,29.58,ESE,113,2.2,6.7,62,0.00,,,0.00,WUHU216HW,2013-02-08 21:41:00,
2013-02-08 15:46:00,28.4,16.4,29.58,SE,135,2.9,6.7,60,0.00,,,0.00,WUHU216HW,2013-02-08 21:46:00,
2013-02-08 15:51:00,28.3,16.6,29.58,SSE,158,3.6,6.3,61,0.00,,,0.00,WUHU216HW,2013-02-08 21:51:00,
2013-02-08 15:56:00,27.7,16.0,29.57,SSE,158,5.6,6.7,61,0.00,,,0.00,WUHU216HW,2013-02-08 21:56:00,
2013-02-08 16:01:00,27.7,16.0,29.57,ESE,113,4.5,6.7,61,0.00,,,0.00,WUHU216HW,2013-02-08 22:01:00,
2013-02-08 16:06:00,27.4,16.0,29.57,SSE,158,2.7,6.9,62,0.00,,,0.00,WUHU216HW,2013-02-08 22:06:00,
2013-02-08 16:11:00,27.4,16.0,29.57,SSE,158,3.4,7.6,62,0.00,,,0.00,WUHU216HW,2013-02-08 22:11:00,
2013-02-08 16:16:00,27.2,15.8,29.57,SSE,158,5.4,7.6,62,0.00,,,0.00,WUHU216HW,2013-02-08 22:16:00,
2013-02-08 16:21:00,27.0,15.7,29.56,SE,135,4.9,8.3,62,0.00,,,0.00,WUHU216HW,2013-02-08 22:21:00,
2013-02-08 16:26:00,26.8,15.5,29.56,SSE,158,4.7,8.3,62,0.00,,,0.00,WUHU216HW,2013-02-08 22:26:00,
2013-02-08 16:31:00,26.5,15.1,29.56,ESE,113,2.7,6.7,62,0.00,,,0.00,WUHU216HW,2013-02-08 22:31:00,
2013-02-08 16:36:00,26.3,14.9,29.56,SE,135,4.5,5.6,62,0.00,,,0.00,WUHU216HW,2013-02-08 22:36:00,
2013-02-08 16:41:00,26.3,14.9,29.56,ESE,113,4.3,5.1,62,0.00,,,0.00,WUHU216HW,2013-02-08 22:41:00,
2013-02-08 16:46:00,26.1,14.8,29.55,SSE,158,4.7,5.1,62,0.00,,,0.00,WUHU216HW,2013-02-08 22:46:00,
2013-02-08 16:51:00,25.9,15.0,29.55,East,90,2.0,5.1,63,0.00,,,0.00,WUHU216HW,2013-02-08 22:51:00,
2013-02-08 16:56:00,25.6,14.7,29.55,SE,135,3.8,4.0,63,0.00,,,0.00,WUHU216HW,2013-02-08 22:56:00,
2013-02-08 17:01:00,25.6,14.7,29.55,SSE,158,1.8,6.3,63,0.00,,,0.00,WUHU216HW,2013-02-08 23:01:00,
2013-02-08 17:06:00,25.2,14.3,29.55,SSE,158,3.4,6.3,63,0.00,,,0.00,WUHU216HW,2013-02-08 23:06:00,
2013-02-08 17:11:00,25.0,14.5,29.55,ESE,113,1.3,3.4,64,0.00,,,0.00,WUHU216HW,2013-02-08 23:11:00,
2013-02-08 17:16:00,24.8,14.3,29.55,SE,135,2.5,3.1,64,0.00,,,0.00,WUHU216HW,2013-02-08 23:16:00,
2013-02-08 17:21:00,24.8,14.3,29.54,East,90,1.1,2.5,64,0.00,,,0.00,WUHU216HW,2013-02-08 23:21:00,
2013-02-08 17:26:00,24.7,14.5,29.54,SE,135,0.4,1.8,65,0.00,,,0.00,WUHU216HW,2013-02-08 23:26:00,
2013-02-08 17:31:00,24.5,14.3,29.54,East,90,0.7,1.8,65,0.00,,,0.00,WUHU216HW,2013-02-08 23:31:00,
2013-02-08 17:36:00,24.1,14.0,29.54,SE,135,0.9,1.6,65,0.00,,,0.00,WUHU216HW,2013-02-08 23:36:00,
2013-02-08 17:41:00,23.9,14.1,29.54,South,180,1.1,1.1,66,0.00,,,0.00,WUHU216HW,2013-02-08 23:41:00,
2013-02-08 17:46:00,23.8,14.1,29.54,SSE,158,0.2,2.2,66,0.00,,,0.00,WUHU216HW,2013-02-08 23:46:00,
2013-02-08 17:51:00,23.4,13.7,29.54,ESE,113,0.4,2.2,66,0.00,,,0.00,WUHU216HW,2013-02-08 23:51:00,
2013-02-08 17:56:00,23.2,13.9,29.54,ESE,113,2.2,2.5,67,0.00,,,0.00,WUHU216HW,2013-02-08 23:56:00,
2013-02-08 18:01:00,23.2,13.9,29.54,SE,135,0.7,2.5,67,0.00,,,0.00,WUHU216HW,2013-02-09 00:01:00,
2013-02-08 18:06:00,22.9,13.5,29.54,SSE,158,2.2,2.2,67,0.00,,,0.00,WUHU216HW,2013-02-09 00:06:00,
2013-02-08 18:11:00,22.9,13.5,29.54,East,90,1.1,2.2,67,0.00,,,0.00,WUHU216HW,2013-02-09 00:11:00,
2013-02-08 18:16:00,22.7,13.7,29.53,ESE,113,2.7,2.7,68,0.00,,,0.00,WUHU216HW,2013-02-09 00:16:00,
2013-02-08 18:21:00,22.7,13.7,29.53,ESE,113,2.5,2.7,68,0.00,,,0.00,WUHU216HW,2013-02-09 00:21:00,
2013-02-08 18:26:00,22.5,13.5,29.52,East,90,1.3,2.5,68,0.00,,,0.00,WUHU216HW,2013-02-09 00:26:00,
2013-02-08 18:31:00,22.3,13.7,29.53,SSE,158,0.2,2.5,69,0.00,,,0.00,WUHU216HW,2013-02-09 00:31:00,
2013-02-08 18:36:00,22.3,13.3,29.54,ESE,113,2.5,2.5,68,0.00,,,0.00,WUHU216HW,2013-02-09 00:36:00,
2013-02-08 18:41:00,22.3,13.7,29.54,SSE,158,3.8,3.8,69,0.00,,,0.00,WUHU216HW,2013-02-09 00:41:00,
2013-02-08 18:46:00,22.3,13.7,29.54,SE,135,1.3,3.8,69,0.00,,,0.00,WUHU216HW,2013-02-09 00:46:00,
2013-02-08 18:51:00,22.3,13.7,29.54,ESE,113,2.2,4.0,69,0.00,,,0.00,WUHU216HW,2013-02-09 00:51:00,
2013-02-08 18:56:00,22.1,13.5,29.54,ESE,113,0.7,4.0,69,0.00,,,0.00,WUHU216HW,2013-02-09 00:56:00,
2013-02-08 19:01:00,22.1,13.5,29.54,ESE,113,1.6,3.8,69,0.00,,,0.00,WUHU216HW,2013-02-09 01:01:00,
2013-02-08 19:06:00,22.0,13.3,29.54,ESE,113,1.3,4.7,69,0.00,,,0.00,WUHU216HW,2013-02-09 01:06:00,
2013-02-08 19:11:00,22.0,13.3,29.54,ESE,113,0.4,4.7,69,0.00,,,0.00,WUHU216HW,2013-02-09 01:11:00,
2013-02-08 19:16:00,22.0,13.3,29.53,SE,135,1.8,3.4,69,0.00,,,0.00,WUHU216HW,2013-02-09 01:16:00,
2013-02-08 19:21:00,21.8,13.1,29.53,SE,135,0.4,3.4,69,0.00,,,0.00,WUHU216HW,2013-02-09 01:21:00,
2013-02-08 19:26:00,21.6,13.0,29.54,SE,135,1.6,2.7,69,0.00,,,0.00,WUHU216HW,2013-02-09 01:26:00,
2013-02-08 19:31:00,21.4,12.8,29.54,SSE,158,1.6,1.6,69,0.00,,,0.00,WUHU216HW,2013-02-09 01:31:00,
2013-02-08 19:36:00,21.2,12.6,29.54,SSE,158,1.6,1.6,69,0.00,,,0.00,WUHU216HW,2013-02-09 01:36:00,
2013-02-08 19:41:00,21.1,12.4,29.54,SSE,158,1.1,1.6,69,0.00,,,0.00,WUHU216HW,2013-02-09 01:41:00,
2013-02-08 19:46:00,20.9,12.2,29.54,SSE,158,0.4,1.3,69,0.00,,,0.00,WUHU216HW,2013-02-09 01:46:00,
2013-02-08 19:51:00,20.7,12.4,29.54,SE,135,0.7,3.6,70,0.00,,,0.00,WUHU216HW,2013-02-09 01:51:00,
2013-02-08 19:56:00,20.5,12.2,29.54,East,90,0.9,3.6,70,0.00,,,0.00,WUHU216HW,2013-02-09 01:56:00,
2013-02-08 20:01:00,20.5,12.2,29.54,South,180,0.4,2.2,70,0.00,,,0.00,WUHU216HW,2013-02-09 02:01:00,
2013-02-08 20:06:00,20.3,12.3,29.53,ESE,113,0.2,3.6,71,0.00,,,0.00,WUHU216HW,2013-02-09 02:06:00,
2013-02-08 20:11:00,20.3,12.3,29.53,SE,135,1.8,3.6,71,0.00,,,0.00,WUHU216HW,2013-02-09 02:11:00,
2013-02-08 20:16:00,20.2,12.2,29.53,SSE,158,2.2,3.6,71,0.00,,,0.00,WUHU216HW,2013-02-09 02:16:00,
2013-02-08 20:21:00,20.0,12.3,29.53,ESE,113,1.8,3.6,72,0.00,,,0.00,WUHU216HW,2013-02-09 02:21:00,
2013-02-08 20:26:00,20.0,12.3,29.53,SSE,158,1.8,2.5,72,0.00,,,0.00,WUHU216HW,2013-02-09 02:26:00,
2013-02-08 20:31:00,19.8,12.2,29.52,SSE,158,2.5,2.5,72,0.00,,,0.00,WUHU216HW,2013-02-09 02:31:00,
2013-02-08 20:36:00,19.8,12.4,29.52,ESE,113,1.1,2.5,73,0.00,,,0.00,WUHU216HW,2013-02-09 02:36:00,
2013-02-08 20:41:00,19.8,12.8,29.52,SSE,158,2.9,3.4,74,0.00,,,0.00,WUHU216HW,2013-02-09 02:41:00,
2013-02-08 20:46:00,19.8,12.8,29.52,SSE,158,1.3,3.4,74,0.00,,,0.00,WUHU216HW,2013-02-09 02:46:00,
2013-02-08 20:51:00,19.8,13.1,29.51,ESE,113,0.9,4.0,75,0.00,,,0.00,WUHU216HW,2013-02-09 02:51:00,
2013-02-08 20:56:00,19.8,12.8,29.52,ESE,113,2.5,4.0,74,0.00,,,0.00,WUHU216HW,2013-02-09 02:56:00,
2013-02-08 21:01:00,20.0,13.2,29.52,East,90,0.7,4.3,75,0.00,,,0.00,WUHU216HW,2013-02-09 03:01:00,
2013-02-08 21:06:00,20.3,13.6,29.52,SE,135,0.2,4.7,75,0.00,,,0.00,WUHU216HW,2013-02-09 03:06:00,
2013-02-08 21:11:00,20.5,14.4,29.52,ESE,113,2.5,4.7,77,0.00,,,0.00,WUHU216HW,2013-02-09 03:11:00,
2013-02-08 21:16:00,20.9,14.4,29.52,SE,135,3.6,4.5,76,0.00,,,0.00,WUHU216HW,2013-02-09 03:16:00,
2013-02-08 21:21:00,21.2,15.1,29.52,SE,135,2.5,4.5,77,0.00,,,0.00,WUHU216HW,2013-02-09 03:21:00,
2013-02-08 21:26:00,21.2,15.1,29.52,ESE,113,3.8,4.7,77,0.00,,,0.00,WUHU216HW,2013-02-09 03:26:00,
2013-02-08 21:31:00,21.6,16.1,29.52,SSE,158,4.0,7.2,79,0.00,,,0.00,WUHU216HW,2013-02-09 03:31:00,
2013-02-08 21:36:00,21.8,16.3,29.52,SSE,158,4.9,7.2,79,0.00,,,0.00,WUHU216HW,2013-02-09 03:36:00,
2013-02-08 21:41:00,22.0,16.5,29.52,SE,135,6.3,9.8,79,0.00,,,0.00,WUHU216HW,2013-02-09 03:41:00,
2013-02-08 21:46:00,22.1,16.9,29.51,SSE,158,3.1,9.8,80,0.00,,,0.00,WUHU216HW,2013-02-09 03:46:00,
2013-02-08 21:51:00,22.1,16.7,29.52,ESE,113,2.5,9.2,79,0.00,,,0.00,WUHU216HW,2013-02-09 03:51:00,
2013-02-08 21:56:00,22.3,16.8,29.51,SSE,158,7.6,7.6,79,0.00,,,0.00,WUHU216HW,2013-02-09 03:56:00,
2013-02-08 22:01:00,22.5,17.0,29.51,South,180,2.5,7.6,79,0.00,,,0.00,WUHU216HW,2013-02-09 04:01:00,
2013-02-08 22:06:00,22.7,17.2,29.51,South,180,1.8,6.0,79,0.00,,,0.00,WUHU216HW,2013-02-09 04:06:00,
2013-02-08 22:11:00,22.7,17.2,29.51,SSE,158,1.1,6.0,79,0.00,,,0.00,WUHU216HW,2013-02-09 04:11:00,
2013-02-08 22:16:00,22.7,17.2,29.51,SE,135,1.8,4.9,79,0.00,,,0.00,WUHU216HW,2013-02-09 04:16:00,
2013-02-08 22:21:00,22.7,16.8,29.51,SE,135,3.4,4.9,78,0.00,,,0.00,WUHU216HW,2013-02-09 04:21:00,
2013-02-08 22:26:00,22.9,17.4,29.51,SE,135,1.3,3.4,79,0.00,,,0.00,WUHU216HW,2013-02-09 04:26:00,
2013-02-08 22:31:00,22.9,17.0,29.51,SSE,158,2.7,2.7,78,0.00,,,0.00,WUHU216HW,2013-02-09 04:31:00,
2013-02-08 22:36:00,23.0,17.6,29.51,ESE,113,2.5,4.0,79,0.00,,,0.00,WUHU216HW,2013-02-09 04:36:00,
2013-02-08 22:41:00,23.2,17.7,29.50,ESE,113,2.5,4.0,79,0.00,,,0.00,WUHU216HW,2013-02-09 04:41:00,
2013-02-08 22:46:00,23.2,17.7,29.50,SE,135,1.6,4.9,79,0.00,,,0.00,WUHU216HW,2013-02-09 04:46:00,
2013-02-08 22:51:00,23.2,17.7,29.50,SE,135,3.6,4.9,79,0.00,,,0.00,WUHU216HW,2013-02-09 04:51:00,
2013-02-08 22:56:00,23.4,18.2,29.49,SSE,158,2.7,6.3,80,0.00,,,0.00,WUHU216HW,2013-02-09 04:56:00,
2013-02-08 23:00:00,23.4,18.2,29.49,SE,135,5.4,6.3,80,0.00,,,0.00,WUHU216HW,2013-02-09 05:00:00,
2013-02-08 23:05:00,23.4,18.2,29.49,South,180,4.9,5.4,80,0.00,,,0.00,WUHU216HW,2013-02-09 05:05:00,
2013-02-08 23:10:00,23.4,18.2,29.49,SSE,158,3.1,4.9,80,0.00,,,0.00,WUHU216HW,2013-02-09 05:10:00,
2013-02-08 23:15:00,23.4,18.2,29.49,SE,135,3.8,4.5,80,0.00,,,0.00,WUHU216HW,2013-02-09 05:15:00,
2013-02-08 23:20:00,23.6,18.6,29.49,East,90,2.5,6.7,81,0.00,,,0.00,WUHU216HW,2013-02-09 05:20:00,
2013-02-08 23:25:00,23.6,18.6,29.49,SSE,158,3.1,6.7,81,0.00,,,0.00,WUHU216HW,2013-02-09 05:25:00,
2013-02-08 23:30:00,23.8,18.5,29.49,South,180,4.9,4.9,80,0.00,,,0.00,WUHU216HW,2013-02-09 05:30:00,
2013-02-08 23:35:00,23.8,18.8,29.48,SSE,158,5.4,5.4,81,0.00,,,0.00,WUHU216HW,2013-02-09 05:35:00,
2013-02-08 23:40:00,23.8,18.8,29.48,East,90,5.6,6.0,81,0.00,,,0.00,WUHU216HW,2013-02-09 05:40:00,
2013-02-08 23:45:00,23.8,18.8,29.48,SE,135,2.5,6.9,81,0.00,,,0.00,WUHU216HW,2013-02-09 05:45:00,
2013-02-08 23:50:00,23.8,18.8,29.48,South,180,2.5,6.9,81,0.00,,,0.00,WUHU216HW,2013-02-09 05:50:00,
2013-02-08 23:55:00,23.9,19.0,29.48,SSE,158,3.4,6.3,81,0.00,,,0.00,WUHU216HW,2013-02-09 05:55:00,